| time (UTC) | temp F | wind direction | speed MPH | gust MPH | rain 1hr in | rain 24hr in | rain mn in | humidity % | barometer mb |
| 20260904075518 | 79 | 0 | 0.0 | 6.0 | 0.00 | 0.00 | 0.00 | 81 | 1013.0 |
| 20260904075023 | 79 | 245 | 0.0 | 5.0 | 0.00 | 0.00 | 0.00 | 81 | 1012.9 |
| 20260904074554 | 79 | 205 | 0.0 | 8.0 | 0.00 | 0.00 | 0.00 | 81 | 1013.0 |
| 20260904074017 | 79 | 210 | 1.0 | 8.0 | 0.00 | 0.00 | 0.00 | 81 | 1012.9 |
| 20260904073516 | 79 | 212 | 1.0 | 8.0 | 0.00 | 0.00 | 0.00 | 80 | 1012.8 |
| 20260904073039 | 80 | 0 | 1.0 | 8.0 | 0.00 | 0.00 | 0.00 | 80 | 1012.9 |
| 20260904072517 | 80 | 0 | 1.0 | 7.0 | 0.00 | 0.00 | 0.00 | 80 | 1012.9 |
| 20260904072018 | 80 | 0 | 1.0 | 7.0 | 0.00 | 0.00 | 0.00 | 80 | 1012.9 |
| 20260904071542 | 80 | 0 | 2.0 | 7.0 | 0.00 | 0.00 | 0.00 | 79 | 1013.1 |
| 20260904071020 | 80 | 191 | 1.0 | 6.0 | 0.00 | 0.00 | 0.00 | 79 | 1013.0 |
| 20260904070523 | 80 | 187 | 1.0 | 6.0 | 0.00 | 0.00 | 0.00 | 79 | 1013.1 |
| 20260904070047 | 80 | 0 | 1.0 | 6.0 | 0.00 | 0.00 | 0.00 | 78 | 1013.1 |
| 20260904065520 | 80 | 202 | 1.0 | 5.0 | 0.00 | 0.00 | 0.00 | 78 | 1013.2 |
| 20260904065017 | 80 | 204 | 1.0 | 6.0 | 0.00 | 0.00 | 0.00 | 78 | 1013.3 |
| 20260904064544 | 80 | 0 | 0.0 | 7.0 | 0.00 | 0.00 | 0.00 | 77 | 1013.3 |
| 20260904064019 | 80 | 131 | 1.0 | 7.0 | 0.00 | 0.00 | 0.00 | 77 | 1013.4 |
| 20260904063521 | 80 | 0 | 0.0 | 8.0 | 0.00 | 0.00 | 0.00 | 77 | 1013.4 |
| 20260904063037 | 80 | 0 | 1.0 | 8.0 | 0.00 | 0.00 | 0.00 | 76 | 1013.2 |
| 20260904062519 | 80 | 202 | 2.0 | 7.0 | 0.00 | 0.00 | 0.00 | 76 | 1013.3 |
| 20260904062019 | 80 | 204 | 0.0 | 5.0 | 0.00 | 0.00 | 0.00 | 76 | 1013.2 |
| 20260904061549 | 80 | 0 | 1.0 | 8.0 | 0.00 | 0.00 | 0.00 | 75 | 1013.3 |
| 20260904061019 | 80 | 198 | 1.0 | 8.0 | 0.00 | 0.00 | 0.00 | 75 | 1013.4 |
| 20260904060520 | 80 | 193 | 2.0 | 8.0 | 0.00 | 0.00 | 0.00 | 75 | 1013.4 |
| 20260904060038 | 81 | 0 | 0.0 | 8.0 | 0.00 | 0.00 | 0.00 | 75 | 1013.3 |
| 20260904055519 | 81 | 179 | 2.0 | 7.0 | 0.00 | 0.00 | 0.00 | 75 | 1013.4 |
| 20260904055020 | 81 | 212 | 2.0 | 9.0 | 0.00 | 0.00 | 0.00 | 74 | 1013.4 |
| 20260904054541 | 81 | 225 | 2.0 | 12.0 | 0.00 | 0.00 | 0.00 | 74 | 1013.4 |
| 20260904054020 | 81 | 127 | 3.0 | 12.0 | 0.00 | 0.00 | 0.00 | 74 | 1013.4 |
| 20260904053523 | 81 | 222 | 1.0 | 12.0 | 0.00 | 0.00 | 0.00 | 74 | 1013.6 |
| 20260904053039 | 81 | 213 | 4.0 | 10.0 | 0.00 | 0.00 | 0.00 | 74 | 1013.3 |
| 20260904052519 | 81 | 208 | 1.0 | 6.0 | 0.00 | 0.00 | 0.00 | 74 | 1013.3 |
| 20260904052021 | 81 | 0 | 1.0 | 7.0 | 0.00 | 0.00 | 0.00 | 74 | 1013.2 |
| 20260904051548 | 81 | 0 | 1.0 | 8.0 | 0.00 | 0.00 | 0.00 | 74 | 1013.3 |
| 20260904051020 | 81 | 216 | 2.0 | 10.0 | 0.00 | 0.00 | 0.00 | 74 | 1013.3 |
| 20260904050517 | 81 | 206 | 3.0 | 10.0 | 0.00 | 0.00 | 0.00 | 74 | 1013.4 |
| 20260904050041 | 81 | 202 | 2.0 | 8.0 | 0.00 | 0.00 | 0.00 | 74 | 1013.2 |
| 20260904045521 | 81 | 217 | 3.0 | 9.0 | 0.00 | 0.00 | 0.00 | 73 | 1013.2 |
| 20260904045018 | 81 | 151 | 1.0 | 10.0 | 0.00 | 0.00 | 0.00 | 73 | 1013.1 |
| 20260904044537 | 81 | 0 | 1.0 | 16.0 | 0.00 | 0.00 | 0.00 | 72 | 1013.1 |
| 20260904044018 | 81 | 208 | 3.0 | 16.0 | 0.00 | 0.00 | 0.00 | 72 | 1013.0 |
| 20260904043520 | 82 | 0 | 1.0 | 8.0 | 0.00 | 0.00 | 0.00 | 72 | 1013.2 |
| 20260904043039 | 82 | 173 | 2.0 | 8.0 | 0.00 | 0.00 | 0.00 | 71 | 1013.2 |
| 20260904042517 | 82 | 210 | 3.0 | 10.0 | 0.00 | 0.00 | 0.00 | 71 | 1013.1 |
| 20260904042017 | 82 | 210 | 2.0 | 10.0 | 0.00 | 0.00 | 0.00 | 71 | 1013.2 |
| 20260904041544 | 82 | 202 | 1.0 | 9.0 | 0.00 | 0.00 | 0.00 | 71 | 1013.3 |
| 20260904041017 | 82 | 188 | 0.0 | 10.0 | 0.00 | 0.00 | 0.00 | 70 | 1013.2 |
| 20260904040523 | 82 | 182 | 3.0 | 10.0 | 0.00 | 0.00 | 0.00 | 70 | 1013.3 |
| 20260904040037 | 82 | 234 | 4.0 | 9.0 | 0.00 | 0.00 | 0.00 | 70 | 1013.3 |
| 20260904035519 | 82 | 236 | 3.0 | 9.0 | 0.00 | 0.00 | 0.00 | 69 | 1013.3 |
| 20260904035019 | 82 | 143 | 4.0 | 10.0 | 0.00 | 0.00 | 0.00 | 68 | 1013.3 |
| 20260904034549 | 82 | 200 | 2.0 | 10.0 | 0.00 | 0.00 | 0.00 | 68 | 1013.4 |
| 20260904034019 | 82 | 166 | 1.0 | 7.0 | 0.00 | 0.00 | 0.00 | 68 | 1013.4 |
| 20260904033517 | 82 | 191 | 1.0 | 11.0 | 0.00 | 0.00 | 0.00 | 68 | 1013.3 |
| 20260904033041 | 82 | 184 | 4.0 | 11.0 | 0.00 | 0.00 | 0.00 | 68 | 1013.3 |
| 20260904032518 | 82 | 172 | 4.0 | 10.0 | 0.00 | 0.00 | 0.00 | 68 | 1013.5 |
| 20260904032018 | 82 | 231 | 4.0 | 9.0 | 0.00 | 0.00 | 0.00 | 67 | 1013.5 |
| 20260904031542 | 82 | 170 | 4.0 | 13.0 | 0.00 | 0.00 | 0.00 | 67 | 1013.4 |
| 20260904031020 | 83 | 212 | 4.0 | 13.0 | 0.00 | 0.00 | 0.00 | 66 | 1013.3 |
| 20260904030518 | 83 | 238 | 3.0 | 10.0 | 0.00 | 0.00 | 0.00 | 66 | 1013.2 |
| 20260904030036 | 83 | 177 | 2.0 | 5.0 | 0.00 | 0.00 | 0.00 | 66 | 1013.2 |
| 20260904025517 | 83 | 193 | 1.0 | 9.0 | 0.00 | 0.00 | 0.00 | 66 | 1013.1 |
| 20260904025020 | 83 | 206 | 3.0 | 9.0 | 0.00 | 0.00 | 0.00 | 66 | 1012.8 |
| 20260904024538 | 83 | 0 | 2.0 | 8.0 | 0.00 | 0.00 | 0.00 | 66 | 1012.7 |
| 20260904024020 | 83 | 198 | 1.0 | 10.0 | 0.00 | 0.00 | 0.00 | 66 | 1012.7 |
| 20260904023518 | 83 | 153 | 4.0 | 11.0 | 0.00 | 0.00 | 0.00 | 67 | 1012.7 |
| 20260904023036 | 83 | 203 | 3.0 | 11.0 | 0.00 | 0.00 | 0.00 | 68 | 1012.7 |
| 20260904022520 | 83 | 156 | 4.0 | 12.0 | 0.00 | 0.00 | 0.00 | 69 | 1012.6 |
| 20260904022021 | 83 | 198 | 4.0 | 12.0 | 0.00 | 0.00 | 0.00 | 70 | 1012.5 |
| 20260904021537 | 83 | 188 | 4.0 | 13.0 | 0.00 | 0.00 | 0.00 | 71 | 1012.5 |
| 20260904021021 | 84 | 194 | 3.0 | 15.0 | 0.00 | 0.00 | 0.00 | 71 | 1012.5 |
| 20260904020517 | 84 | 246 | 4.0 | 15.0 | 0.00 | 0.00 | 0.00 | 71 | 1012.3 |
| 20260904020036 | 84 | 177 | 2.0 | 8.0 | 0.00 | 0.00 | 0.00 | 72 | 1012.3 |
| 20260904015522 | 84 | 177 | 3.0 | 10.0 | 0.00 | 0.00 | 0.00 | 71 | 1012.3 |
| 20260904015017 | 84 | 216 | 2.0 | 10.0 | 0.00 | 0.00 | 0.00 | 71 | 1012.3 |
| 20260904014538 | 84 | 179 | 2.0 | 10.0 | 0.00 | 0.00 | 0.00 | 70 | 1012.1 |
| 20260904014020 | 84 | 212 | 3.0 | 10.0 | 0.00 | 0.00 | 0.00 | 70 | 1012.0 |
| 20260904013518 | 84 | 174 | 4.0 | 13.0 | 0.00 | 0.00 | 0.00 | 70 | 1012.0 |
| 20260904013036 | 85 | 221 | 4.0 | 13.0 | 0.00 | 0.00 | 0.00 | 69 | 1011.9 |
| 20260904012529 | 85 | 210 | 1.0 | 10.0 | 0.00 | 0.00 | 0.00 | 69 | 1011.9 |
| 20260904012020 | 85 | 225 | 4.0 | 12.0 | 0.00 | 0.00 | 0.00 | 68 | 1011.8 |
| 20260904011559 | 85 | 0 | 3.0 | 12.0 | 0.00 | 0.00 | 0.00 | 68 | 1011.9 |
| 20260904011019 | 86 | 198 | 3.0 | 9.0 | 0.00 | 0.00 | 0.00 | 66 | 1011.9 |
| 20260904010520 | 86 | 188 | 2.0 | 12.0 | 0.00 | 0.00 | 0.00 | 63 | 1011.9 |
| 20260904010043 | 86 | 0 | 3.0 | 12.0 | 0.00 | 0.00 | 0.00 | 62 | 1011.9 |
| 20260904005520 | 86 | 156 | 3.0 | 10.0 | 0.00 | 0.00 | 0.00 | 62 | 1011.9 |
| 20260904005017 | 86 | 186 | 2.0 | 10.0 | 0.00 | 0.00 | 0.00 | 63 | 1011.9 |
| 20260904004537 | 86 | 206 | 2.0 | 11.0 | 0.00 | 0.00 | 0.00 | 64 | 1012.0 |
| 20260904004024 | 87 | 164 | 5.0 | 11.0 | 0.00 | 0.00 | 0.00 | 64 | 1011.8 |
| 20260904003525 | 87 | 245 | 2.0 | 10.0 | 0.00 | 0.00 | 0.00 | 64 | 1011.8 |
| 20260904003037 | 87 | 96 | 2.0 | 10.0 | 0.00 | 0.00 | 0.00 | 64 | 1011.8 |
| 20260904002519 | 87 | 198 | 1.0 | 8.0 | 0.00 | 0.00 | 0.00 | 64 | 1011.7 |
| 20260904002018 | 87 | 225 | 2.0 | 8.0 | 0.00 | 0.00 | 0.00 | 64 | 1011.7 |
| 20260904001539 | 87 | 189 | 1.0 | 13.0 | 0.00 | 0.00 | 0.00 | 64 | 1011.7 |
| 20260904001019 | 88 | 135 | 2.0 | 13.0 | 0.00 | 0.00 | 0.00 | 64 | 1011.6 |
| 20260904000520 | 88 | 177 | 4.0 | 12.0 | 0.00 | 0.00 | 0.00 | 63 | 1011.5 |
| 20260904000043 | 88 | 222 | 4.0 | 10.0 | 0.00 | 0.00 | 0.00 | 63 | 1011.6 |
| 20260903235520 | 88 | 0 | 2.0 | 10.0 | 0.00 | 0.01 | 0.00 | 63 | 1011.6 |
| 20260903235017 | 88 | 210 | 2.0 | 12.0 | 0.00 | 0.01 | 0.00 | 63 | 1011.5 |
| 20260903234544 | 89 | 108 | 5.0 | 12.0 | 0.00 | 0.01 | 0.00 | 62 | 1011.6 |
| 20260903234020 | 89 | 114 | 2.0 | 11.0 | 0.00 | 0.01 | 0.00 | 62 | 1011.4 |
| 20260903233521 | 89 | 131 | 3.0 | 12.0 | 0.00 | 0.01 | 0.00 | 62 | 1011.3 |
| 20260903233041 | 89 | 230 | 5.0 | 12.0 | 0.00 | 0.01 | 0.00 | 62 | 1011.2 |
| 20260903232521 | 89 | 141 | 2.0 | 8.0 | 0.00 | 0.01 | 0.00 | 61 | 1011.3 |
| 20260903232020 | 90 | 214 | 1.0 | 8.0 | 0.00 | 0.01 | 0.00 | 60 | 1011.2 |
| 20260903231544 | 90 | 104 | 2.0 | 13.0 | 0.00 | 0.01 | 0.00 | 60 | 1011.3 |
| 20260903231020 | 90 | 139 | 4.0 | 13.0 | 0.00 | 0.01 | 0.00 | 59 | 1011.3 |
| 20260903230518 | 90 | 187 | 3.0 | 12.0 | 0.00 | 0.01 | 0.00 | 58 | 1011.3 |
| 20260903230044 | 90 | 200 | 2.0 | 12.0 | 0.00 | 0.01 | 0.00 | 58 | 1011.3 |
| 20260903225520 | 90 | 154 | 3.0 | 9.0 | 0.00 | 0.01 | 0.00 | 57 | 1011.3 |
| 20260903225020 | 91 | 164 | 4.0 | 8.0 | 0.00 | 0.01 | 0.00 | 57 | 1011.2 |
| 20260903224543 | 91 | 110 | 2.0 | 14.0 | 0.00 | 0.01 | 0.00 | 57 | 1011.2 |
| 20260903224022 | 91 | 230 | 4.0 | 14.0 | 0.00 | 0.01 | 0.00 | 57 | 1011.3 |
| 20260903223520 | 91 | 203 | 1.0 | 10.0 | 0.00 | 0.01 | 0.00 | 58 | 1011.3 |
| 20260903223036 | 92 | 191 | 3.0 | 9.0 | 0.00 | 0.01 | 0.00 | 57 | 1011.3 |
| 20260903222518 | 92 | 124 | 3.0 | 10.0 | 0.00 | 0.01 | 0.00 | 56 | 1011.3 |
| 20260903222018 | 91 | 169 | 4.0 | 11.0 | 0.00 | 0.01 | 0.00 | 57 | 1011.2 |
| 20260903221540 | 92 | 131 | 2.0 | 11.0 | 0.00 | 0.01 | 0.00 | 57 | 1011.3 |
| 20260903221019 | 91 | 225 | 3.0 | 9.0 | 0.00 | 0.01 | 0.00 | 58 | 1011.2 |
| 20260903220517 | 92 | 0 | 1.0 | 11.0 | 0.00 | 0.01 | 0.00 | 58 | 1011.1 |
| 20260903220040 | 91 | 233 | 3.0 | 11.0 | 0.00 | 0.01 | 0.00 | 58 | 1011.3 |
| 20260903215518 | 91 | 0 | 2.0 | 8.0 | 0.00 | 0.01 | 0.00 | 60 | 1011.4 |
| 20260903215018 | 90 | 146 | 3.0 | 8.0 | 0.00 | 0.01 | 0.00 | 60 | 1011.5 |
| 20260903214542 | 90 | 131 | 2.0 | 9.0 | 0.00 | 0.01 | 0.00 | 60 | 1011.6 |
| 20260903214019 | 91 | 180 | 4.0 | 9.0 | 0.00 | 0.01 | 0.00 | 59 | 1011.6 |
| 20260903213521 | 93 | 216 | 2.0 | 10.0 | 0.00 | 0.01 | 0.00 | 57 | 1011.7 |
| 20260903213052 | 92 | 114 | 4.0 | 11.0 | 0.00 | 0.01 | 0.00 | 58 | 1011.7 |
| 20260903212519 | 92 | 129 | 2.0 | 11.0 | 0.00 | 0.01 | 0.00 | 59 | 1011.5 |
| 20260903212018 | 91 | 0 | 3.0 | 13.0 | 0.00 | 0.01 | 0.00 | 59 | 1011.6 |
| 20260903211545 | 91 | 113 | 5.0 | 13.0 | 0.00 | 0.01 | 0.00 | 59 | 1011.6 |
| 20260903211020 | 92 | 221 | 4.0 | 13.0 | 0.00 | 0.01 | 0.00 | 59 | 1011.8 |
| 20260903210518 | 93 | 221 | 3.0 | 14.0 | 0.00 | 0.01 | 0.00 | 57 | 1011.8 |
| 20260903210040 | 93 | 208 | 3.0 | 14.0 | 0.00 | 0.01 | 0.00 | 57 | 1011.7 |
| 20260903205522 | 92 | 110 | 2.0 | 13.0 | 0.00 | 0.01 | 0.00 | 60 | 1011.8 |
| 20260903205018 | 92 | 208 | 2.0 | 8.0 | 0.00 | 0.01 | 0.00 | 59 | 1011.8 |
| 20260903204538 | 92 | 217 | 1.0 | 12.0 | 0.00 | 0.01 | 0.00 | 59 | 1011.8 |
| 20260903204016 | 90 | 205 | 3.0 | 12.0 | 0.00 | 0.01 | 0.00 | 61 | 1011.9 |
| 20260903203525 | 91 | 212 | 3.0 | 11.0 | 0.00 | 0.01 | 0.00 | 60 | 1012.1 |
| 20260903203103 | 91 | 133 | 4.0 | 11.0 | 0.00 | 0.01 | 0.00 | 61 | 1012.1 |
| 20260903202523 | 90 | 0 | 3.0 | 10.0 | 0.00 | 0.01 | 0.00 | 62 | 1012.1 |
| 20260903202020 | 90 | 226 | 3.0 | 10.0 | 0.00 | 0.01 | 0.00 | 62 | 1012.1 |
| 20260903201540 | 89 | 212 | 5.0 | 10.0 | 0.00 | 0.01 | 0.00 | 64 | 1012.2 |
| 20260903201019 | 89 | 216 | 3.0 | 9.0 | 0.00 | 0.01 | 0.00 | 65 | 1012.4 |
| 20260903200520 | 87 | 211 | 4.0 | 10.0 | 0.00 | 0.01 | 0.00 | 66 | 1012.4 |
| 20260903200038 | 87 | 159 | 4.0 | 10.0 | 0.00 | 0.01 | 0.00 | 66 | 1012.5 |
| 20260903195519 | 87 | 217 | 2.0 | 11.0 | 0.00 | 0.01 | 0.00 | 66 | 1012.5 |
| 20260903195019 | 87 | 208 | 4.0 | 11.0 | 0.00 | 0.01 | 0.00 | 66 | 1012.4 |
| 20260903194538 | 87 | 114 | 2.0 | 11.0 | 0.00 | 0.01 | 0.00 | 67 | 1012.5 |
| 20260903194025 | 87 | 185 | 3.0 | 10.0 | 0.00 | 0.01 | 0.00 | 67 | 1012.5 |
| 20260903193524 | 87 | 0 | 3.0 | 11.0 | 0.00 | 0.01 | 0.00 | 67 | 1012.5 |
| 20260903193042 | 87 | 227 | 4.0 | 11.0 | 0.00 | 0.01 | 0.00 | 67 | 1012.5 |
| 20260903192520 | 87 | 198 | 2.0 | 10.0 | 0.00 | 0.01 | 0.00 | 66 | 1012.5 |
| 20260903192020 | 88 | 196 | 3.0 | 10.0 | 0.00 | 0.01 | 0.00 | 66 | 1012.7 |
| 20260903191539 | 88 | 214 | 3.0 | 10.0 | 0.00 | 0.01 | 0.00 | 66 | 1012.7 |
| 20260903191017 | 88 | 200 | 1.0 | 12.0 | 0.00 | 0.01 | 0.00 | 66 | 1012.7 |
| 20260903190519 | 88 | 147 | 4.0 | 12.0 | 0.00 | 0.01 | 0.00 | 66 | 1012.6 |
| 20260903190037 | 88 | 235 | 3.0 | 9.0 | 0.00 | 0.01 | 0.00 | 66 | 1012.7 |
| 20260903185518 | 87 | 275 | 4.0 | 10.0 | 0.00 | 0.01 | 0.00 | 69 | 1012.8 |
| 20260903185018 | 86 | 206 | 4.0 | 12.0 | 0.00 | 0.01 | 0.00 | 69 | 1012.9 |
| 20260903184536 | 87 | 237 | 5.0 | 12.0 | 0.00 | 0.01 | 0.00 | 68 | 1013.1 |
| 20260903184019 | 87 | 240 | 4.0 | 11.0 | 0.00 | 0.01 | 0.00 | 67 | 1013.2 |
| 20260903183518 | 88 | 218 | 3.0 | 15.0 | 0.00 | 0.01 | 0.00 | 68 | 1013.3 |
| 20260903183043 | 86 | 0 | 5.0 | 18.0 | 0.00 | 0.01 | 0.00 | 70 | 1013.3 |
| 20260903182524 | 86 | 150 | 5.0 | 18.0 | 0.00 | 0.01 | 0.00 | 70 | 1013.4 |
| 20260903182020 | 86 | 168 | 4.0 | 12.0 | 0.00 | 0.01 | 0.00 | 69 | 1013.3 |
| 20260903181536 | 86 | 0 | 4.0 | 14.0 | 0.00 | 0.01 | 0.00 | 70 | 1013.5 |
| 20260903181017 | 86 | 201 | 5.0 | 14.0 | 0.00 | 0.01 | 0.00 | 70 | 1013.6 |
| 20260903180520 | 86 | 195 | 7.0 | 15.0 | 0.00 | 0.01 | 0.00 | 70 | 1013.6 |
| 20260903180037 | 86 | 214 | 6.0 | 17.0 | 0.00 | 0.01 | 0.00 | 71 | 1013.6 |
| 20260903175517 | 85 | 214 | 8.0 | 17.0 | 0.00 | 0.01 | 0.00 | 72 | 1013.6 |
| 20260903175019 | 85 | 227 | 4.0 | 16.0 | 0.00 | 0.01 | 0.00 | 73 | 1013.8 |
| 20260903174537 | 85 | 147 | 7.0 | 16.0 | 0.00 | 0.01 | 0.00 | 74 | 1013.8 |
| 20260903174017 | 84 | 201 | 3.0 | 14.0 | 0.00 | 0.01 | 0.00 | 76 | 1013.7 |
| 20260903173520 | 84 | 202 | 5.0 | 14.0 | 0.00 | 0.01 | 0.00 | 76 | 1013.7 |
| 20260903173037 | 84 | 194 | 6.0 | 12.0 | 0.00 | 0.01 | 0.00 | 75 | 1013.8 |
| 20260903172518 | 84 | 208 | 5.0 | 11.0 | 0.00 | 0.01 | 0.00 | 75 | 1013.8 |
| 20260903172020 | 84 | 237 | 4.0 | 12.0 | 0.00 | 0.01 | 0.00 | 76 | 1013.8 |
| 20260903171555 | 84 | 212 | 3.0 | 12.0 | 0.00 | 0.01 | 0.00 | 76 | 1013.8 |
| 20260903171017 | 84 | 161 | 3.0 | 13.0 | 0.00 | 0.01 | 0.00 | 76 | 1014.0 |
| 20260903170517 | 84 | 194 | 4.0 | 14.0 | 0.00 | 0.01 | 0.00 | 77 | 1014.0 |
| 20260903170038 | 84 | 208 | 5.0 | 14.0 | 0.00 | 0.01 | 0.00 | 76 | 1013.9 |
| 20260903165517 | 84 | 227 | 3.0 | 12.0 | 0.00 | 0.01 | 0.00 | 76 | 1014.0 |
| 20260903165017 | 84 | 144 | 3.0 | 14.0 | 0.00 | 0.01 | 0.00 | 77 | 1013.9 |
| 20260903164546 | 84 | 191 | 5.0 | 14.0 | 0.00 | 0.01 | 0.00 | 78 | 1013.9 |
| 20260903164017 | 84 | 214 | 2.0 | 9.0 | 0.00 | 0.01 | 0.00 | 79 | 1013.9 |
| 20260903163518 | 83 | 199 | 4.0 | 10.0 | 0.00 | 0.01 | 0.00 | 79 | 1013.9 |
| 20260903163037 | 83 | 188 | 3.0 | 10.0 | 0.00 | 0.01 | 0.00 | 79 | 1013.9 |
| 20260903162520 | 83 | 178 | 4.0 | 10.0 | 0.00 | 0.01 | 0.00 | 80 | 1013.9 |
| 20260903162020 | 83 | 217 | 1.0 | 10.0 | 0.00 | 0.01 | 0.00 | 81 | 1013.8 |
| 20260903161536 | 83 | 206 | 4.0 | 11.0 | 0.00 | 0.01 | 0.00 | 81 | 1013.8 |
| 20260903161021 | 83 | 199 | 3.0 | 11.0 | 0.00 | 0.01 | 0.00 | 81 | 1013.8 |
| 20260903160517 | 83 | 214 | 3.0 | 12.0 | 0.00 | 0.01 | 0.00 | 81 | 1013.8 |
| 20260903160036 | 83 | 193 | 4.0 | 12.0 | 0.00 | 0.01 | 0.00 | 81 | 1013.8 |
| 20260903155522 | 83 | 214 | 3.0 | 12.0 | 0.00 | 0.01 | 0.00 | 81 | 1013.8 |
| 20260903155019 | 82 | 183 | 3.0 | 16.0 | 0.00 | 0.01 | 0.00 | 82 | 1013.7 |
| 20260903154546 | 82 | 175 | 4.0 | 16.0 | 0.00 | 0.01 | 0.00 | 82 | 1013.9 |
| 20260903154018 | 82 | 201 | 4.0 | 10.0 | 0.00 | 0.01 | 0.00 | 82 | 1013.8 |
| 20260903153518 | 82 | 164 | 3.0 | 9.0 | 0.00 | 0.01 | 0.00 | 82 | 1013.7 |
| 20260903153036 | 82 | 193 | 1.0 | 9.0 | 0.00 | 0.01 | 0.00 | 82 | 1013.7 |
| 20260903152518 | 82 | 168 | 2.0 | 10.0 | 0.00 | 0.01 | 0.00 | 82 | 1013.8 |
| 20260903152019 | 82 | 139 | 2.0 | 10.0 | 0.00 | 0.01 | 0.00 | 83 | 1013.8 |
| 20260903151537 | 82 | 179 | 3.0 | 10.0 | 0.00 | 0.01 | 0.00 | 82 | 1013.8 |
| 20260903151020 | 82 | 0 | 1.0 | 10.0 | 0.00 | 0.01 | 0.00 | 82 | 1013.8 |
| 20260903150518 | 82 | 0 | 1.0 | 7.0 | 0.00 | 0.01 | 0.00 | 82 | 1013.7 |
| 20260903150039 | 81 | 225 | 1.0 | 7.0 | 0.00 | 0.01 | 0.00 | 83 | 1013.7 |
| 20260903145517 | 81 | 0 | 1.0 | 9.0 | 0.00 | 0.01 | 0.00 | 83 | 1013.7 |
| 20260903145021 | 81 | 194 | 4.0 | 9.0 | 0.00 | 0.01 | 0.00 | 84 | 1013.8 |
| 20260903144543 | 81 | 0 | 1.0 | 9.0 | 0.00 | 0.01 | 0.00 | 84 | 1013.8 |
| 20260903144016 | 80 | 217 | 3.0 | 9.0 | 0.00 | 0.01 | 0.00 | 84 | 1013.8 |
| 20260903143517 | 81 | 168 | 0.0 | 6.0 | 0.00 | 0.01 | 0.00 | 84 | 1013.9 |
| 20260903143045 | 80 | 0 | 1.0 | 9.0 | 0.00 | 0.01 | 0.00 | 84 | 1013.8 |
| 20260903142518 | 80 | 172 | 3.0 | 9.0 | 0.00 | 0.01 | 0.00 | 84 | 1013.8 |
| 20260903142020 | 80 | 205 | 0.0 | 4.0 | 0.00 | 0.01 | 0.00 | 85 | 1013.8 |
| 20260903141537 | 80 | 0 | 0.0 | 7.0 | 0.00 | 0.01 | 0.00 | 85 | 1013.8 |
| 20260903141020 | 80 | 202 | 1.0 | 7.0 | 0.00 | 0.01 | 0.00 | 85 | 1013.9 |
| 20260903140518 | 79 | 207 | 2.0 | 7.0 | 0.00 | 0.01 | 0.00 | 86 | 1014.0 |
| 20260903140043 | 79 | 218 | 2.0 | 7.0 | 0.00 | 0.01 | 0.00 | 86 | 1014.0 |
| 20260903135519 | 79 | 0 | 1.0 | 8.0 | 0.00 | 0.01 | 0.00 | 86 | 1014.0 |
| 20260903135019 | 79 | 203 | 1.0 | 8.0 | 0.00 | 0.01 | 0.00 | 86 | 1014.0 |
| 20260903134537 | 79 | 0 | 1.0 | 5.0 | 0.00 | 0.01 | 0.00 | 85 | 1014.1 |
| 20260903134020 | 79 | 175 | 0.0 | 4.0 | 0.00 | 0.01 | 0.00 | 85 | 1014.0 |
| 20260903133521 | 79 | 168 | 0.0 | 8.0 | 0.00 | 0.01 | 0.00 | 85 | 1013.9 |
| 20260903133040 | 79 | 0 | 0.0 | 8.0 | 0.00 | 0.01 | 0.00 | 85 | 1013.8 |
| 20260903132520 | 79 | 0 | 0.0 | 6.0 | 0.00 | 0.01 | 0.00 | 85 | 1013.7 |
| 20260903132022 | 79 | 170 | 1.0 | 6.0 | 0.00 | 0.01 | 0.00 | 85 | 1013.7 |
| 20260903131538 | 79 | 130 | 0.0 | 4.0 | 0.00 | 0.01 | 0.00 | 86 | 1013.6 |
| 20260903131020 | 79 | 0 | 0.0 | 4.0 | 0.00 | 0.01 | 0.00 | 86 | 1013.5 |
| 20260903130519 | 79 | 0 | 0.0 | 6.0 | 0.00 | 0.01 | 0.00 | 86 | 1013.5 |
| 20260903130039 | 79 | 139 | 0.0 | 6.0 | 0.00 | 0.01 | 0.00 | 86 | 1013.5 |
| 20260903125517 | 79 | 0 | 0.0 | 6.0 | 0.00 | 0.01 | 0.00 | 85 | 1013.5 |
| 20260903125018 | 79 | 0 | 0.0 | 6.0 | 0.00 | 0.01 | 0.00 | 85 | 1013.5 |
| 20260903124538 | 79 | 0 | 0.0 | 5.0 | 0.00 | 0.01 | 0.00 | 85 | 1013.4 |
| 20260903124021 | 79 | 0 | 0.0 | 3.0 | 0.00 | 0.01 | 0.00 | 85 | 1013.4 |
| 20260903123520 | 79 | 156 | 0.0 | 3.0 | 0.00 | 0.01 | 0.00 | 85 | 1013.4 |
| 20260903123037 | 79 | 0 | 0.0 | 3.0 | 0.00 | 0.01 | 0.00 | 84 | 1013.5 |
| 20260903122520 | 79 | 0 | 0.0 | 3.0 | 0.00 | 0.01 | 0.00 | 84 | 1013.4 |
| 20260903122020 | 79 | 156 | 0.0 | 2.0 | 0.00 | 0.01 | 0.00 | 84 | 1013.4 |
| 20260903121537 | 79 | 0 | 0.0 | 7.0 | 0.00 | 0.01 | 0.00 | 85 | 1013.4 |
| 20260903121019 | 79 | 0 | 1.0 | 7.0 | 0.00 | 0.01 | 0.00 | 85 | 1013.3 |
| 20260903120519 | 78 | 197 | 0.0 | 8.0 | 0.00 | 0.01 | 0.00 | 85 | 1013.2 |
| 20260903120054 | 78 | 0 | 1.0 | 8.0 | 0.00 | 0.01 | 0.00 | 84 | 1013.2 |
| 20260903115515 | 78 | 169 | 0.0 | 6.0 | 0.00 | 0.01 | 0.00 | 84 | 1013.1 |
| 20260903115016 | 78 | 200 | 1.0 | 6.0 | 0.00 | 0.01 | 0.00 | 84 | 1012.9 |
| 20260903114553 | 78 | 0 | 0.0 | 7.0 | 0.00 | 0.01 | 0.00 | 84 | 1012.9 |
| 20260903114020 | 78 | 222 | 2.0 | 7.0 | 0.00 | 0.01 | 0.00 | 84 | 1012.9 |
| 20260903113520 | 79 | 195 | 1.0 | 6.0 | 0.00 | 0.01 | 0.00 | 84 | 1012.9 |
| 20260903113102 | 79 | 0 | 1.0 | 5.0 | 0.00 | 0.01 | 0.00 | 84 | 1013.0 |
| 20260903112518 | 79 | 0 | 0.0 | 5.0 | 0.00 | 0.01 | 0.00 | 84 | 1013.0 |
| 20260903112023 | 79 | 0 | 0.0 | 5.0 | 0.00 | 0.01 | 0.00 | 84 | 1013.1 |
| 20260903111536 | 79 | 216 | 0.0 | 4.0 | 0.00 | 0.01 | 0.00 | 84 | 1013.2 |
| 20260903111019 | 79 | 0 | 0.0 | 4.0 | 0.00 | 0.01 | 0.00 | 84 | 1013.2 |
| 20260903110518 | 79 | 0 | 0.0 | 4.0 | 0.00 | 0.01 | 0.00 | 84 | 1013.1 |
| 20260903110036 | 79 | 0 | 0.0 | 3.0 | 0.00 | 0.01 | 0.00 | 84 | 1013.0 |
| 20260903105519 | 79 | 0 | 0.0 | 8.0 | 0.00 | 0.01 | 0.00 | 84 | 1013.0 |
| 20260903105018 | 79 | 0 | 1.0 | 8.0 | 0.00 | 0.01 | 0.00 | 83 | 1012.9 |
| 20260903104554 | 79 | 174 | 1.0 | 7.0 | 0.00 | 0.01 | 0.00 | 83 | 1012.9 |
| 20260903104018 | 79 | 0 | 0.0 | 4.0 | 0.00 | 0.01 | 0.00 | 83 | 1012.8 |
| 20260903103517 | 79 | 0 | 0.0 | 4.0 | 0.00 | 0.01 | 0.00 | 83 | 1012.7 |
| 20260903103039 | 79 | 0 | 0.0 | 3.0 | 0.00 | 0.01 | 0.00 | 82 | 1012.7 |
| 20260903102521 | 79 | 0 | 0.0 | 3.0 | 0.00 | 0.01 | 0.00 | 82 | 1012.5 |
| 20260903102017 | 78 | 0 | 0.0 | 3.0 | 0.00 | 0.01 | 0.00 | 83 | 1012.5 |
| 20260903101537 | 79 | 204 | 0.0 | 1.0 | 0.00 | 0.01 | 0.00 | 83 | 1012.5 |
| 20260903101018 | 78 | 0 | 0.0 | 2.0 | 0.00 | 0.01 | 0.00 | 84 | 1012.6 |
| 20260903100518 | 78 | 0 | 0.0 | 2.0 | 0.00 | 0.01 | 0.00 | 84 | 1012.5 |
| 20260903100039 | 78 | 0 | 0.0 | 4.0 | 0.00 | 0.01 | 0.00 | 85 | 1012.5 |
| 20260903095518 | 78 | 0 | 0.0 | 4.0 | 0.00 | 0.01 | 0.00 | 86 | 1012.6 |
| 20260903095018 | 78 | 0 | 0.0 | 1.0 | 0.00 | 0.01 | 0.00 | 86 | 1012.6 |
| 20260903094549 | 78 | 0 | 0.0 | 0.0 | 0.00 | 0.01 | 0.00 | 87 | 1012.6 |
| 20260903094022 | 78 | 0 | 0.0 | 0.0 | 0.00 | 0.01 | 0.00 | 88 | 1012.7 |
| 20260903093521 | 78 | 0 | 0.0 | 0.0 | 0.00 | 0.01 | 0.00 | 87 | 1012.6 |
| 20260903093042 | 78 | 0 | 0.0 | 4.0 | 0.00 | 0.01 | 0.00 | 86 | 1012.7 |
| 20260903092519 | 78 | 0 | 0.0 | 5.0 | 0.00 | 0.01 | 0.00 | 86 | 1012.8 |
| 20260903092020 | 79 | 0 | 0.0 | 5.0 | 0.00 | 0.01 | 0.00 | 86 | 1012.9 |
| 20260903091548 | 79 | 0 | 0.0 | 0.0 | 0.00 | 0.01 | 0.00 | 86 | 1012.9 |
| 20260903091016 | 79 | 0 | 0.0 | 0.0 | 0.00 | 0.01 | 0.00 | 85 | 1012.9 |
| 20260903090517 | 79 | 0 | 0.0 | 2.0 | 0.00 | 0.01 | 0.00 | 84 | 1012.8 |
| 20260903090045 | 79 | 0 | 0.0 | 2.0 | 0.00 | 0.01 | 0.00 | 84 | 1012.7 |
| 20260903085517 | 79 | 0 | 0.0 | 2.0 | 0.00 | 0.01 | 0.00 | 84 | 1012.7 |
| 20260903085020 | 79 | 0 | 0.0 | 1.0 | 0.00 | 0.01 | 0.00 | 84 | 1012.7 |
| 20260903084536 | 79 | 0 | 0.0 | 1.0 | 0.00 | 0.01 | 0.00 | 84 | 1012.5 |
| 20260903084020 | 79 | 0 | 0.0 | 1.0 | 0.00 | 0.01 | 0.00 | 84 | 1012.5 |
| 20260903083524 | 79 | 0 | 0.0 | 2.0 | 0.00 | 0.01 | 0.00 | 83 | 1012.5 |
| 20260903083034 | 79 | 0 | 0.0 | 2.0 | 0.00 | 0.01 | 0.00 | 83 | 1012.5 |
| 20260903082517 | 80 | 0 | 0.0 | 1.0 | 0.00 | 0.01 | 0.00 | 83 | 1012.5 |
| 20260903082018 | 80 | 0 | 0.0 | 3.0 | 0.00 | 0.01 | 0.00 | 83 | 1012.5 |
| 20260903081538 | 80 | 0 | 0.0 | 3.0 | 0.00 | 0.01 | 0.00 | 83 | 1012.5 |
| 20260903081019 | 80 | 216 | 0.0 | 3.0 | 0.00 | 0.01 | 0.00 | 82 | 1012.5 |
| 20260903080517 | 80 | 0 | 0.0 | 3.0 | 0.00 | 0.01 | 0.00 | 82 | 1012.6 |
| 20260903080037 | 80 | 0 | 0.0 | 3.0 | 0.00 | 0.01 | 0.00 | 81 | 1012.5 |